Location: Logan
(41.7360°N, 111.8340°W)
Time: 10:40:22
(UTC-06:00)

Daily predictions for brighter satellites

Satellite Brightness Start Highest point End
(mag) Time Altitude Azimuth Time Altitude Azimuth Time Altitude Azimuth
Cosmos 1184 Rocket 2.9 21:11:38 10° S 21:14:55 57° E 21:18:14 10° NNE
Cosmos 2082 Rocket 2.4 21:10:04 10° SSW 21:15:43 83° WNW 21:21:27 10° NNE
ATLAS CENTAUR R/B 4.5 21:11:23 10° S 21:17:06 38° ESE 21:31:37 10° NE
Thor Agena Rocket 3.6 21:12:10 10° NNE 21:17:29 85° ESE 21:22:43 10° SSW
Cosmos 2322 Rocket 3.9 21:14:35 10° N 21:18:37 20° NE 21:22:38 10° E
Envisat 4.1 21:13:56 10° S 21:18:49 47° W 21:23:43 10° NNW
SJ-6B 4.2 21:15:59 10° SSW 21:19:28 37° W 21:22:58 10° NNW
NOAA 11 4.4 21:14:11 10° SSE 21:19:33 59° ENE 21:24:55 10° N
USA 186 2.5 21:18:57 10° S 21:21:58 54° W 21:25:11 10° NNW
Cosmos 371 Rocket 3.4 21:20:20 10° SSW 21:25:09 82° WNW 21:30:00 10° NNE
SL-16 R/B 3.7 21:20:47 10° N 21:25:15 23° NE 21:29:43 10° ESE
Cosmos 2151 Rocket 3.9 21:24:15 10° NNW 21:28:43 73° W 21:33:08 10° S
Cosmos 2278 4.5 21:23:30 10° NNW 21:29:00 52° WSW 21:34:29 10° S
GPS 2-04 Rocket1 3.7 21:26:30 10° WSW 21:30:20 34° S 21:34:05 11° ESE
Lacrosse 4 Rocket 4.5 21:33:12 10° W 21:34:27 11° WSW 21:35:40 10° WSW
ARGOS 3.8 21:31:01 10° SE 21:35:58 39° ENE 21:40:58 10° N
Cosmos 2360 4.2 21:32:44 10° NNW 21:38:28 79° ENE 21:44:11 10° SSE
Okean 3 3.5 21:34:20 10° S 21:38:38 86° E 21:42:57 10° N
Cosmos 1300 Rocket 3.8 21:40:16 10° NNW 21:44:38 70° W 21:48:57 10° S
CENTAUR R/B 3.9 21:42:22 12° SE 21:45:05 16° ESE 21:48:38 10° ENE
Cosmos 1939 Rocket 4.3 21:43:13 10° SSW 21:47:02 37° W 21:50:53 10° NNW
Okean 1 3.3 21:46:06 10° S 21:50:07 69° E 21:54:10 10° NNE
Cosmos 44 Rocket 4.3 21:48:52 10° NW 21:53:49 46° WSW 21:58:46 10° S
ATLAS 3B R/B 2.8 21:46:59 10° SSW 21:54:12 84° ESE 22:01:10 10° NE
Shenzhou-11 Module 1.9 21:52:38 10° W 21:55:36 81° N 21:58:34 10° E
Spot 2 Rocket 3.9 21:52:56 10° S 21:57:54 61° WSW 22:02:55 10° NNW
Lacrosse 5 rocket 4.0 21:56:05 10° NNW 21:58:23 14° NNE 22:00:38 10° NE
Cosmos 1500 4.3 21:56:08 10° NNW 21:59:48 43° W 22:03:28 10° SSW
ISS -3.9 21:57:57 10° SW 22:01:09 58° SE 22:04:23 10° ENE
Terra 3.9 21:59:08 10° E 22:01:26 14° ENE 22:03:44 10° NNE
Cosmos 1697 Rocket 3.9 21:57:04 10° NW 22:02:16 38° WSW 22:07:26 10° S
USA 245 4.2 22:02:28 19° ESE 22:04:00 28° ENE 22:07:20 10° N
Cosmos 1937 Rocket 4.3 22:00:10 10° N 22:04:54 36° ENE 22:08:06 18° ESE
Cosmos 468 Rocket 4.1 22:00:14 10° S 22:05:21 53° ESE 22:10:27 10° NNE
Tsikada Rocket 4.2 22:00:13 10° N 22:06:38 81° W 22:13:03 10° S
SL-08 RB Rocket 3.8 22:07:52 19° SSE 22:11:01 60° ENE 22:15:30 10° N
Cosmos 2360 Rocket 3.8 22:06:50 10° N 22:11:13 22° NE 22:14:49 13° E
MetOp-B 4.1 22:09:06 17° SSE 22:13:18 71° ENE 22:18:40 10° N
Cosmos 1570 Rocket 4.1 22:08:45 10° SSW 22:14:05 88° WNW 22:19:29 10° NNE
Cosmos 1725 Rocket 4.5 22:08:06 10° SSW 22:14:11 62° W 22:20:20 10° N
Cosmos 1980 Rocket 2.8 22:08:43 10° NNW 22:14:14 54° WSW 22:19:19 12° S
Cosmos 1666 2.6 22:11:01 10° N 22:14:55 83° E 22:17:28 20° S
Cosmos 1743 2.6 22:12:41 10° N 22:16:33 79° E 22:18:54 22° SSE
Cosmos 1763 Rocket 3.9 22:14:02 14° S 22:18:15 43° ESE 22:23:15 10° NNE
Meteor 2-9 Rocket 4.5 22:14:23 10° N 22:19:32 48° ENE 22:22:37 23° SE
Cosmos 841 Rocket 4.3 22:17:56 22° SE 22:20:14 31° E 22:24:49 10° NE
Abrixas rocket 2.6 22:17:56 10° SSW 22:20:56 36° SE 22:21:10 35° SE
USA 238 DEB 4.4 22:16:59 10° SW 22:23:44 58° NW 22:30:37 10° NNE
USA 238 4.4 22:17:06 10° SW 22:23:50 58° NW 22:30:43 10° NNE
SPOT 1/Viking Rocket 4.2 22:21:23 23° SE 22:24:11 41° ENE 22:29:01 10° N
Cosmos 304 Rocket 4.4 22:22:12 10° SSW 22:26:56 57° WNW 22:31:42 10° NNE
Cosmos 1340 Rocket 3.5 22:27:06 29° SE 22:28:11 35° E 22:31:54 10° NNE
H-2A R/B 1.9 22:24:49 20° SSE 22:28:13 90° SSE 22:33:15 10° NNW
Helios 1B rocket 3.4 22:24:51 10° NE 22:28:28 29° E 22:29:07 27° ESE
DMSP B5D2-2 4.3 22:24:40 10° NNE 22:29:50 51° E 22:32:58 23° SSE
Iridium 2 3.6 22:28:41 23° S 22:31:00 87° E 22:34:51 10° N
Meteor 2-4 Rocket 3.7 22:27:43 20° SSE 22:31:23 58° E 22:36:48 10° NNE
Cosmos 1455 Rocket 3.4 22:27:21 10° N 22:31:34 47° E 22:33:14 31° SE
ATLAS CENTAUR R/B 2.9 22:28:28 10° NW 22:32:35 34° WSW 22:35:40 17° S
Cosmos 1242 Rocket 2.7 22:31:12 10° NNW 22:34:52 71° W 22:36:35 29° S
deb Kosmos-1763 4.0 22:31:57 15° SSW 22:34:59 90° WNW 22:38:42 10° NNE
BREEZE-M DEB (TANK) 3.4 22:32:46 10° WNW 22:35:06 36° SSW 22:36:09 29° S
Cosmos 1356 4.4 22:36:29 30° E 22:36:29 30° E 22:39:30 10° NNE
Tiangong 2 1.4 22:36:27 10° SW 22:39:02 45° SSW 22:39:02 45° SSW
Cosmos 1975 Rocket 3.4 22:36:40 12° SSW 22:40:37 64° W 22:44:56 10° N
Cosmos 1898 Rocket 3.6 22:37:34 10° NNW 22:42:52 75° WSW 22:45:49 27° S
Resurs 01 Rocket 4.3 22:44:14 10° WSW 22:46:11 13° W 22:48:09 10° WNW
Meteor 1-13 Rocket 4.3 22:41:22 14° S 22:46:26 90° E 22:52:26 10° N
Cosmos 1975 4.3 22:43:14 10° NNW 22:46:53 33° W 22:49:51 14° SSW
Meteor 1-29 4.0 22:44:42 10° NNE 22:47:22 30° E 22:47:22 30° E
Cosmos 1814 Rocket 3.9 22:46:23 17° SSW 22:50:29 79° ESE 22:55:48 10° NNE
ERS-1 Rocket 3.2 22:47:59 25° S 22:50:52 68° WSW 22:55:54 10° NNW
USA 234 4.5 22:46:51 10° NE 22:52:58 44° NNW 22:59:05 10° W
Cosmos 1072 Rocket 4.5 22:51:02 21° S 22:55:30 82° E 23:01:50 10° N
Centaur D-1AR AC-36 4.5 22:40:15 10° WSW 22:56:51 22° SSW 22:59:27 19° S
Cosmos 1515 3.7 22:56:30 53° ESE 22:56:54 56° E 23:00:41 10° NNE
Cosmos 292 Rocket 3.7 22:55:18 37° SSE 22:56:58 60° ESE 23:01:40 10° NNE
NOSS 3-2 (A) 4.2 22:51:47 10° SW 22:57:34 53° NW 23:04:02 10° NNE
Cosmos 1544 Rocket 3.5 22:53:56 10° N 22:58:23 85° W 22:59:54 41° S
NOSS 3-2 (C) 3.8 22:54:59 10° SW 23:00:53 68° NW 23:07:28 10° NNE
Meteor 2-20 Rocket 4.4 22:56:41 10° N 23:02:50 90° W 23:05:56 32° S
Cosmos 2322 Rocket 2.3 22:57:37 10° NNW 23:03:13 69° WSW 23:05:40 34° S
Cosmos 2150 Rocket 4.0 23:03:38 10° NNW 23:09:04 87° WSW 23:10:55 42° SSE
SL-16 R/B 2.6 23:04:11 10° NNW 23:09:45 57° WSW 23:12:11 32° S
Cosmos 990 Rocket 4.4 23:06:28 10° NNW 23:11:35 57° WSW 23:13:38 34° SSW
Cosmos 1536 Rocket 3.5 23:12:43 51° S 23:13:49 87° E 23:18:17 10° N
SPOT 5 2.9 23:12:32 41° SSW 23:13:51 61° W 23:18:17 10° NNW
Nadezhda 4 Rocket 4.1 23:07:55 10° N 23:14:08 60° E 23:16:22 39° SE
Helios 1A 3.7 23:17:11 36° SW 23:18:20 46° W 23:22:21 10° NNW
SJ 16-02 1.8 23:14:12 10° N 23:18:30 46° ENE 23:19:00 44° E
Landsat 7 3.9 23:18:32 46° S 23:19:54 73° WSW 23:24:40 10° NNW
CZ-2C R/B 3.3 23:22:06 45° SE 23:23:26 60° ENE 23:28:52 10° N
Nimbus 7 Rocket 4.4 23:18:33 10° NNE 23:24:24 65° ESE 23:26:11 44° SSE
Shenzhou-11 Module 4.0 23:28:46 10° W 23:30:09 24° WNW 23:30:09 24° WNW
BREEZE-M R/B 4.4 23:30:55 10° WNW 23:33:20 22° NNW 23:34:17 18° NNE
Aureole 2 Rocket 3.7 23:31:01 10° NNW 23:33:00 32° WNW 23:33:00 32° WNW
CENTAUR R/B 2.5 23:29:22 14° SW 23:34:32 84° NW 23:41:27 10° NE
Cosmos 2084 4.5 23:31:29 10° WSW 23:35:35 43° NW 23:39:30 10° NNE
Cosmos 2034 Rocket 4.1 23:34:18 32° SSW 23:37:18 71° W 23:43:28 10° N
ISS -1.4 23:35:05 10° WNW 23:37:51 25° NNW 23:40:37 10° NE
Terra 1.8 23:37:46 58° SSW 23:38:34 72° WSW 23:43:20 10° NNW
Lacrosse 5 rocket 2.2 23:34:35 10° NW 23:38:40 41° NE 23:39:13 39° ENE
CARTOSAT-1 4.1 23:46:03 46° WSW 23:46:27 48° W 23:50:39 10° NNW
YAOGAN 11 4.2 23:49:29 65° WSW 23:49:44 66° WSW 23:54:14 10° NNW
Spot 4 4.0 23:51:17 58° E 23:51:34 59° ENE 23:56:20 10° N
